N5TM-4 Weather Reports


time (UTC)temp
C
wind
direction
speed
KPH
gust
KPH
rain 1hr
cm
rain 24hr
cm
rain mn
cm
humidity
%
barometer
mb
20260507030005 22 355 6.4 20.9 0.00 0.00 0.00 75 1011.9
20260507025503 22 345 9.7 20.9 0.00 0.00 0.00 76 1011.9
20260507025002 22 300 8.0 17.7 0.00 0.00 0.00 76 1011.8
20260507024502 22 22 6.4 20.9 0.00 0.00 0.00 76 1011.8
20260507024059 22 308 8.0 20.9 0.00 0.00 0.00 76 1011.8
20260507023558 23 325 6.4 17.7 0.00 0.00 0.00 76 1011.7
20260507023105 23 263 8.0 17.7 0.00 0.00 0.00 76 1011.4
20260507022556 23 280 6.4 16.1 0.00 0.00 0.00 76 1011.3
20260507022056 23 321 6.4 16.1 0.00 0.00 0.00 76 1011.2
20260507021554 23 302 3.2 12.9 0.00 0.00 0.00 76 1011.0
20260507021057 23 339 3.2 17.7 0.00 0.00 0.00 76 1010.9
20260507020554 23 338 8.0 19.3 0.00 0.00 0.00 76 1010.9
20260507020056 23 355 6.4 22.5 0.00 0.00 0.00 76 1010.8
20260507015553 23 318 6.4 22.5 0.00 0.00 0.00 75 1010.8
20260507015053 23 297 6.4 17.7 0.00 0.00 0.00 75 1010.8
20260507014601 23 315 6.4 17.7 0.00 0.00 0.00 75 1010.6
20260507014052 23 323 8.0 17.7 0.00 0.00 0.00 75 1010.6
20260507013551 23 348 6.4 16.1 0.00 0.00 0.00 75 1010.5
20260507013051 24 319 6.4 16.1 0.00 0.00 0.00 75 1010.5
20260507012551 24 303 6.4 16.1 0.00 0.00 0.00 75 1010.3
20260507012051 24 306 8.0 19.3 0.00 0.00 0.00 75 1010.2
20260507011551 25 5 4.8 19.3 0.00 0.00 0.00 75 1010.2
20260507011049 25 302 8.0 19.3 0.00 0.00 0.00 75 1010.0
20260507010550 25 345 6.4 17.7 0.00 0.00 0.00 76 1009.9
20260507010050 25 281 3.2 16.1 0.00 0.00 0.00 76 1009.9
20260507005550 25 321 8.0 16.1 0.00 0.00 0.00 75 1009.8
20260507005049 25 289 6.4 17.7 0.00 0.00 0.00 75 1009.8
20260507004550 26 317 9.7 17.7 0.00 0.00 0.00 74 1009.7
20260507004048 26 317 4.8 20.9 0.00 0.00 0.00 74 1009.4
20260507003548 26 313 11.3 20.9 0.00 0.00 0.00 73 1009.3
20260507003051 27 320 8.0 24.1 0.00 0.00 0.00 73 1009.2
20260507002548 27 339 9.7 24.1 0.00 0.00 0.00 73 1009.0
20260507002050 28 347 4.8 14.5 0.00 0.00 0.00 75 1009.0
20260507001548 28 161 3.2 11.3 0.00 0.00 0.00 78 1008.8
20260507001047 28 168 3.2 11.3 0.00 0.00 0.00 79 1008.6
20260507000550 28 163 4.8 11.3 0.00 0.00 0.00 78 1008.6
20260507000047 28 142 4.8 12.9 0.00 0.00 0.00 78 1008.5
20260506235547 28 171 4.8 12.9 0.00 0.00 0.00 76 1008.7
20260506235050 29 169 4.8 14.5 0.00 0.00 0.00 75 1008.6
20260506234547 30 158 6.4 14.5 0.00 0.00 0.00 72 1008.5
20260506234047 31 202 0.0 4.8 0.00 0.00 0.00 68 1008.4
20260506233547 31 200 0.0 3.2 0.00 0.00 0.00 69 1008.4
20260506233100 31 200 0.0 4.8 0.00 0.00 0.00 68 1008.4
20260506232546 31 153 0.0 4.8 0.00 0.00 0.00 68 1008.3
20260506232046 31 153 0.0 4.8 0.00 0.00 0.00 69 1008.2
20260506231546 31 205 0.0 8.0 0.00 0.00 0.00 68 1008.3
20260506231046 31 205 1.6 8.0 0.00 0.00 0.00 68 1008.2
20260506230545 31 152 3.2 9.7 0.00 0.00 0.00 68 1008.2
20260506230046 31 141 1.6 9.7 0.00 0.00 0.00 67 1008.1
20260506225545 31 166 1.6 8.0 0.00 0.00 0.00 66 1008.1
20260506225045 31 154 1.6 8.0 0.00 0.00 0.00 66 1008.2
20260506224545 31 154 1.6 8.0 0.00 0.00 0.00 65 1008.1
20260506224044 31 154 3.2 8.0 0.00 0.00 0.00 65 1008.2
20260506223546 31 188 1.6 6.4 0.00 0.00 0.00 65 1008.2
20260506223046 31 202 1.6 6.4 0.00 0.00 0.00 65 1008.2
20260506222544 31 202 0.0 6.4 0.00 0.00 0.00 66 1008.1
20260506222043 31 202 1.6 6.4 0.00 0.00 0.00 66 1008.1
20260506221543 31 160 3.2 8.0 0.00 0.00 0.00 66 1008.1
20260506221041 31 273 0.0 11.3 0.00 0.00 0.00 66 1008.0
20260506220542 31 273 1.6 11.3 0.00 0.00 0.00 66 1007.9
20260506220042 31 167 1.6 11.3 0.00 0.00 0.00 67 1008.0
20260506215544 31 162 0.0 11.3 0.00 0.00 0.00 69 1007.9
20260506215042 31 163 3.2 14.5 0.00 0.00 0.00 68 1008.0
20260506214541 30 163 6.4 12.9 0.00 0.00 0.00 68 1008.1
20260506214039 31 144 1.6 12.9 0.00 0.00 0.00 69 1008.0
20260506213539 30 165 4.8 16.1 0.00 0.00 0.00 68 1008.0
20260506213042 30 171 3.2 16.1 0.00 0.00 0.00 69 1008.0
20260506212539 31 166 6.4 14.5 0.00 0.00 0.00 68 1007.9
20260506212039 31 121 6.4 12.9 0.00 0.00 0.00 68 1008.0
20260506211538 31 207 1.6 12.9 0.00 0.00 0.00 67 1008.1
20260506211038 31 131 0.0 14.5 0.00 0.00 0.00 68 1008.1
20260506210536 31 202 3.2 14.5 0.00 0.00 0.00 67 1008.2
20260506210035 31 220 3.2 12.9 0.00 0.00 0.00 69 1008.3
20260506205541 31 207 4.8 12.9 0.00 0.00 0.00 69 1008.4
20260506205037 30 159 3.2 12.9 0.00 0.00 0.00 71 1008.4
20260506204538 30 183 4.8 16.1 0.00 0.00 0.00 71 1008.4
20260506204036 30 159 8.0 16.1 0.00 0.00 0.00 72 1008.5
20260506203534 30 154 6.4 14.5 0.00 0.00 0.00 69 1008.6
20260506203036 30 189 3.2 14.5 0.00 0.00 0.00 70 1008.6
20260506202535 30 169 4.8 19.3 0.00 0.00 0.00 71 1008.7
20260506202034 30 150 3.2 19.3 0.00 0.00 0.00 71 1008.7
20260506201533 30 170 4.8 17.7 0.00 0.00 0.00 72 1008.6
20260506201034 29 174 4.8 14.5 0.00 0.00 0.00 73 1008.7
20260506200533 30 203 4.8 16.1 0.00 0.00 0.00 72 1008.7
20260506200033 30 146 8.0 17.7 0.00 0.00 0.00 70 1008.7
20260506195533 30 184 6.4 17.7 0.00 0.00 0.00 70 1008.7
20260506195037 30 206 4.8 12.9 0.00 0.00 0.00 69 1008.7
20260506194536 31 193 3.2 12.9 0.00 0.00 0.00 68 1008.8
20260506194031 31 148 3.2 16.1 0.00 0.00 0.00 69 1008.9
20260506193529 31 169 6.4 16.1 0.00 0.00 0.00 68 1008.9
20260506193031 30 174 6.4 16.1 0.00 0.00 0.00 70 1008.9
20260506192531 30 164 8.0 16.1 0.00 0.00 0.00 70 1008.9
20260506192027 30 173 6.4 16.1 0.00 0.00 0.00 70 1009.1
20260506191526 30 163 3.2 16.1 0.00 0.00 0.00 72 1009.1
20260506191027 30 165 9.7 16.1 0.00 0.00 0.00 71 1009.2
20260506190525 30 173 6.4 14.5 0.00 0.00 0.00 71 1009.2
20260506190025 30 156 6.4 16.1 0.00 0.00 0.00 72 1009.3
20260506185524 29 172 6.4 16.1 0.00 0.00 0.00 73 1009.4
20260506185022 29 175 1.6 12.9 0.00 0.00 0.00 74 1009.4
20260506184522 28 203 6.4 14.5 0.00 0.00 0.00 75 1009.5
20260506184023 28 171 6.4 12.9 0.00 0.00 0.00 75 1009.6
20260506183521 28 167 6.4 12.9 0.00 0.00 0.00 74 1009.6
20260506183021 29 189 4.8 16.1 0.00 0.00 0.00 74 1009.6
20260506182520 28 180 6.4 14.5 0.00 0.00 0.00 74 1009.7
20260506182022 29 142 6.4 12.9 0.00 0.00 0.00 74 1009.8
20260506181520 28 133 0.0 9.7 0.00 0.00 0.00 75 1009.9
20260506181020 28 150 3.2 9.7 0.00 0.00 0.00 75 1010.1
20260506180519 28 165 4.8 9.7 0.00 0.00 0.00 74 1010.1
20260506180017 28 164 3.2 8.0 0.00 0.00 0.00 78 1010.2
20260506175517 28 123 4.8 11.3 0.00 0.00 0.00 78 1010.4
20260506175019 28 175 3.2 11.3 0.00 0.00 0.00 78 1010.5
20260506174517 28 155 3.2 9.7 0.00 0.00 0.00 78 1010.5
20260506174016 28 164 3.2 8.0 0.00 0.00 0.00 77 1010.6
20260506173516 28 240 1.6 9.7 0.00 0.00 0.00 78 1010.8
20260506173016 28 150 4.8 8.0 0.00 0.00 0.00 77 1010.8
20260506172515 28 205 1.6 9.7 0.00 0.00 0.00 78 1010.9
20260506172015 28 168 3.2 11.3 0.00 0.00 0.00 78 1010.7
20260506171515 28 169 6.4 12.9 0.00 0.00 0.00 78 1010.8
20260506171014 28 186 3.2 12.9 0.00 0.00 0.00 78 1010.9
20260506170512 27 159 3.2 11.3 0.00 0.00 0.00 81 1010.9
20260506170011 27 163 4.8 11.3 0.00 0.00 0.00 82 1010.9
20260506165509 26 153 6.4 12.9 0.00 0.00 0.00 83 1010.9
20260506165008 26 167 3.2 11.3 0.00 0.00 0.00 85 1010.9
20260506164508 26 157 4.8 11.3 0.00 0.00 0.00 85 1011.0
20260506164008 26 155 4.8 9.7 0.00 0.00 0.00 85 1010.9
20260506163507 26 171 3.2 9.7 0.00 0.00 0.00 86 1011.0
20260506163019 25 136 1.6 11.3 0.00 0.00 0.00 86 1010.9
20260506162508 25 158 3.2 9.7 0.00 0.00 0.00 86 1010.8
20260506162005 25 164 3.2 9.7 0.00 0.00 0.00 86 1010.7
20260506161506 26 163 4.8 9.7 0.00 0.00 0.00 86 1010.6
20260506161004 26 171 1.6 8.0 0.00 0.00 0.00 86 1010.6
20260506160510 26 152 1.6 9.7 0.00 0.00 0.00 85 1010.6
20260506160011 26 149 4.8 9.7 0.00 0.00 0.00 84 1010.5
20260506155503 26 167 4.8 9.7 0.00 0.00 0.00 83 1010.4
20260506155005 26 187 4.8 8.0 0.00 0.00 0.00 83 1010.4
20260506154503 26 165 4.8 9.7 0.00 0.00 0.00 83 1010.4
20260506154005 26 136 1.6 8.0 0.00 0.00 0.00 83 1010.5
20260506153502 26 175 1.6 9.7 0.00 0.00 0.00 83 1010.5
20260506153115 26 170 4.8 9.7 0.00 0.00 0.00 83 1010.4
20260506152559 26 163 1.6 8.0 0.00 0.00 0.00 83 1010.4
20260506152100 26 155 3.2 8.0 0.00 0.00 0.00 83 1010.2
20260506151559 26 162 3.2 8.0 0.00 0.00 0.00 84 1010.1
20260506151056 26 161 3.2 8.0 0.00 0.00 0.00 84 1009.9
20260506150556 26 153 0.0 14.5 0.00 0.00 0.00 84 1009.9
20260506150056 26 169 8.0 14.5 0.00 0.00 0.00 84 1009.9
20260506145555 26 185 4.8 11.3 0.00 0.00 0.00 84 1009.9
20260506145054 26 166 3.2 11.3 0.00 0.00 0.00 84 1009.9
20260506144555 26 149 4.8 12.9 0.00 0.00 0.00 84 1009.7
20260506144053 26 123 6.4 12.9 0.00 0.00 0.00 85 1009.6
20260506143552 26 163 0.0 11.3 0.00 0.00 0.00 86 1009.5
20260506143103 25 159 3.2 11.3 0.00 0.00 0.00 87 1009.4
20260506142550 25 161 3.2 11.3 0.00 0.00 0.00 87 1009.4
20260506142050 25 172 6.4 12.9 0.00 0.00 0.00 87 1009.3
20260506141550 25 137 6.4 12.9 0.00 0.00 0.00 87 1009.5
20260506141053 25 145 3.2 12.9 0.00 0.00 0.00 88 1009.5
20260506140548 25 149 3.2 14.5 0.00 0.00 0.00 89 1009.6
20260506140047 25 124 4.8 14.5 0.00 0.00 0.00 89 1009.6
20260506135546 25 141 4.8 9.7 0.00 0.00 0.00 91 1009.6
20260506135045 24 160 3.2 9.7 0.00 0.00 0.00 91 1009.6
20260506134544 24 164 3.2 9.7 0.00 0.00 0.00 91 1009.6
20260506134044 24 164 3.2 9.7 0.00 0.00 0.00 92 1009.6
20260506133543 24 150 1.6 8.0 0.00 0.00 0.00 92 1009.6
20260506133042 23 157 3.2 8.0 0.00 0.00 0.00 92 1009.7
20260506132543 23 164 1.6 8.0 0.00 0.00 0.00 93 1009.7
20260506132042 23 164 1.6 4.8 0.00 0.00 0.00 93 1009.9
20260506131542 23 164 0.0 4.8 0.00 0.00 0.00 93 1009.8
20260506131042 23 164 1.6 6.4 0.00 0.00 0.00 93 1009.8
20260506130542 23 164 1.6 6.4 0.00 0.00 0.00 93 1009.8
20260506130041 23 164 1.6 4.8 0.00 0.00 0.00 93 1009.8
20260506125544 23 164 1.6 6.4 0.00 0.00 0.00 93 1009.9
20260506125045 23 164 1.6 8.0 0.00 0.00 0.00 93 1009.9
20260506124540 23 164 1.6 8.0 0.00 0.00 0.00 93 1009.9
20260506124040 23 164 1.6 4.8 0.00 0.00 0.00 93 1009.8
20260506123540 23 164 1.6 3.2 0.00 0.00 0.00 93 1009.8
20260506123040 23 164 0.0 4.8 0.00 0.00 0.00 93 1009.8
20260506122538 23 164 0.0 4.8 0.00 0.00 0.00 93 1009.7
20260506122038 23 164 0.0 4.8 0.00 0.00 0.00 93 1009.6
20260506121542 23 164 1.6 4.8 0.00 0.00 0.00 93 1009.5
20260506121038 23 164 0.0 3.2 0.00 0.00 0.00 93 1009.5
20260506120538 23 164 0.0 3.2 0.00 0.00 0.00 93 1009.4
20260506120038 23 164 0.0 1.6 0.00 0.00 0.00 93 1009.4
20260506115537 22 164 0.0 1.6 0.00 0.00 0.00 93 1009.3
20260506115036 22 164 0.0 1.6 0.00 0.00 0.00 93 1009.3
20260506114544 22 164 0.0 3.2 0.00 0.00 0.00 93 1009.2
20260506114036 23 164 0.0 4.8 0.00 0.00 0.00 93 1009.1
20260506113539 22 164 0.0 4.8 0.00 0.00 0.00 93 1009.0
20260506113036 23 164 0.0 3.2 0.00 0.00 0.00 93 1009.1
20260506112536 22 164 0.0 9.7 0.00 0.00 0.00 93 1009.0
20260506112037 23 164 1.6 9.7 0.00 0.00 0.00 93 1008.9
20260506111539 23 164 1.6 8.0 0.00 0.00 0.00 93 1008.8
20260506111035 23 161 1.6 8.0 0.00 0.00 0.00 93 1008.8
20260506110535 23 162 1.6 8.0 0.00 0.00 0.00 92 1008.8
20260506110035 23 188 3.2 6.4 0.00 0.00 0.00 92 1008.7
20260506105534 23 188 1.6 8.0 0.00 0.00 0.00 92 1008.6
20260506105033 23 188 3.2 8.0 0.00 0.00 0.00 92 1008.6
20260506104534 23 188 1.6 6.4 0.00 0.00 0.00 92 1008.6
20260506104033 23 188 0.0 6.4 0.00 0.00 0.00 92 1008.6
20260506103533 23 188 1.6 6.4 0.00 0.00 0.00 92 1008.6
20260506103032 23 188 0.0 3.2 0.00 0.00 0.00 92 1008.6
20260506102532 23 188 1.6 4.8 0.00 0.00 0.00 92 1008.7
20260506102031 23 188 1.6 6.4 0.00 0.00 0.00 91 1008.7
20260506101533 23 188 1.6 9.7 0.00 0.00 0.00 91 1008.7
20260506101030 23 190 4.8 11.3 0.00 0.00 0.00 91 1008.5
20260506100532 23 181 6.4 11.3 0.00 0.00 0.00 91 1008.5
20260506100030 23 176 3.2 8.0 0.00 0.00 0.00 91 1008.5
20260506095530 23 200 1.6 8.0 0.00 0.00 0.00 91 1008.5
20260506095029 23 138 3.2 9.7 0.00 0.00 0.00 91 1008.4
20260506094530 23 189 4.8 9.7 0.00 0.00 0.00 91 1008.4
20260506094028 23 169 4.8 8.0 0.00 0.00 0.00 91 1008.3
20260506093532 23 178 3.2 14.5 0.00 0.00 0.00 91 1008.3
20260506093030 23 171 6.4 14.5 0.00 0.00 0.00 90 1008.2
20260506092527 23 169 3.2 9.7 0.00 0.00 0.00 90 1008.3
20260506092026 23 184 3.2 11.3 0.00 0.00 0.00 90 1008.3
20260506091527 23 179 4.8 11.3 0.00 0.00 0.00 90 1008.3
20260506091024 23 173 3.2 11.3 0.00 0.00 0.00 90 1008.4
20260506090524 23 139 4.8 9.7 0.00 0.00 0.00 90 1008.5
20260506090023 23 148 3.2 9.7 0.00 0.00 0.00 90 1008.5
20260506085523 23 155 3.2 9.7 0.00 0.00 0.00 90 1008.6
20260506085023 23 177 3.2 9.7 0.00 0.00 0.00 90 1008.6
20260506084523 23 161 3.2 9.7 0.00 0.00 0.00 90 1008.5
20260506084022 23 160 6.4 9.7 0.00 0.00 0.00 90 1008.5
20260506083522 23 161 6.4 9.7 0.00 0.00 0.00 90 1008.6
20260506083022 23 161 3.2 9.7 0.00 0.00 0.00 90 1008.7
20260506082521 23 159 3.2 9.7 0.00 0.00 0.00 90 1008.6
20260506082020 23 158 3.2 11.3 0.00 0.00 0.00 90 1008.7
20260506081521 23 158 3.2 11.3 0.00 0.00 0.00 90 1008.7
20260506081020 23 192 4.8 11.3 0.00 0.00 0.00 90 1008.7
20260506080520 23 155 3.2 11.3 0.00 0.00 0.00 90 1008.7
20260506073519 23 150 3.2 12.9 0.00 0.00 0.00 90 1009.0
20260506073016 23 184 3.2 9.7 0.00 0.00 0.00 90 1009.1
20260506072516 23 171 3.2 11.3 0.00 0.00 0.00 90 1009.2
20260506072017 23 161 4.8 11.3 0.00 0.00 0.00 90 1009.0
20260506071514 23 145 3.2 9.7 0.00 0.00 0.00 90 1009.1
20260506071017 23 150 3.2 9.7 0.00 0.00 0.00 90 1009.2
20260506070514 23 158 4.8 11.3 0.00 0.00 0.00 90 1009.2
20260506062516 23 150 3.2 8.0 0.00 0.00 0.00 90 1009.4
20260506062012 23 161 4.8 8.0 0.00 0.00 0.00 90 1009.5
20260506061516 23 123 3.2 8.0 0.00 0.00 0.00 90 1009.6
20260506061011 23 168 3.2 9.7 0.00 0.00 0.00 90 1009.6
20260506060511 23 126 1.6 9.7 0.00 0.00 0.00 90 1009.6
20260506051006 24 175 3.2 11.3 0.00 0.00 0.00 89 1009.5
20260506050508 24 170 4.8 11.3 0.00 0.00 0.00 88 1009.4
20260506045005 24 142 3.2 9.7 0.00 0.00 0.00 87 1009.5
20260506044505 24 163 1.6 8.0 0.00 0.00 0.00 87 1009.5
20260506044003 24 163 1.6 9.7 0.00 0.00 0.00 87 1009.6
20260506043504 24 162 4.8 9.7 0.00 0.00 0.00 87 1009.6
20260506043104 24 171 3.2 8.0 0.00 0.00 0.00 87 1009.6
20260506042505 24 162 3.2 9.7 0.00 0.00 0.00 87 1009.4
20260506042004 24 161 4.8 11.3 0.00 0.00 0.00 86 1009.4
20260506041504 24 153 3.2 17.7 0.00 0.00 0.00 86 1009.2
20260506041006 25 123 3.2 17.7 0.00 0.00 0.00 86 1009.2
20260506040503 25 134 8.0 16.1 0.00 0.00 0.00 85 1009.3
20260506040005 25 168 4.8 11.3 0.00 0.00 0.00 85 1009.4
20260506035503 25 178 6.4 11.3 0.00 0.00 0.00 85 1009.4
20260506035003 25 156 1.6 16.1 0.00 0.00 0.00 85 1009.3
20260506034503 25 178 8.0 16.1 0.00 0.00 0.00 85 1009.2
20260506034001 25 142 6.4 17.7 0.00 0.00 0.00 84 1009.1
20260506033502 25 177 6.4 17.7 0.00 0.00 0.00 84 1008.9
20260506033001 25 160 6.4 12.9 0.00 0.00 0.00 84 1008.8
20260506032501 25 153 6.4 12.9 0.00 0.00 0.00 84 1008.8
20260506032001 25 167 3.2 14.5 0.00 0.00 0.00 84 1008.7
20260506031504 25 175 6.4 16.1 0.00 0.00 0.00 84 1008.7
20260506031002 25 157 4.8 16.1 0.00 0.00 0.00 83 1008.7
20260506030501 25 172 6.4 16.1 0.00 0.00 0.00 83 1008.8